Location: La Comballaz
(46.3780°N, 7.0817°E)
Time: 16:06:32
(UTC+00:00)

Envisat - Pass Details

Date: 14 December 2021
Orbit: 764 x 766 km, 98.2° (Epoch: 16 January)

Event Time Altitude Azimuth Distance (km) Brightness Sun altitude
Rises 17:17:42 0° 224° (SW) 3,223 7.4 -15.1°
Reaches altitude 10° 17:22:19 10° 263° (W) 2,305 6.8 -15.9°
Maximum altitude 17:23:19 11° 275° (W) 2,269 6.5 -16.1°
Drops below altitude 10° 17:24:20 10° 286° (WNW) 2,308 6.3 -16.2°
Sets 17:28:59 0° 325° (NW) 3,243 6.5 -17.0°
